Location: Tierra del Sol
(32.6128°N, 116.3319°W)
Time: 07:25:10
(UTC-07:00)

Amateur Radio Satellites - All Passes

Search period start: 30 October 2014 06:55
Search period end: 31 October 2014 06:55
Location: Tierra del Sol, 32.6128°N, 116.3319°W

Satellite Date Start Highest point End Downlink Frequencies (MHz)
Time Altitude Azimuth
STRAND 1 30 Oct 07:01:56 07:07:03 78° 257° (WSW) 07:12:13 ?
RS-15 30 Oct 07:12:37 07:23:54 80° 245° (WSW) 07:35:42 29.354 - 29.394 USB, Beacon 29.352 USB
PANSAT 30 Oct 07:27:58 07:31:33 38° 188° (S) 07:35:07 not established
Hamsat 30 Oct 07:52:01 07:52:58 11° 293° (WNW) 07:53:55 145.90 MHz
SO-67 30 Oct 08:00:31 08:03:54 55° 283° (WNW) 08:07:16 435.3500 MHz FM
JAS-2 30 Oct 08:12:58 08:16:51 15° 301° (WNW) 08:20:42 435.800 - 435.900 CW/SSB, 435.910 FM
HO-68 30 Oct 08:45:51 08:51:44 27° 97° (E) 08:57:33 435.675 MHz FM
MaSat-1 30 Oct 09:06:22 09:07:09 11° 255° (WSW) 09:07:56 437.345 MHz
PANSAT 30 Oct 09:08:39 09:11:16 18° 200° (SSW) 09:13:53 not established
KITSAT 1 30 Oct 09:18:20 09:23:01 17° 102° (ESE) 09:27:41 435.175 FM
RS-15 30 Oct 09:29:15 09:34:37 15° 261° (W) 09:40:06 29.354 - 29.394 USB, Beacon 29.352 USB
UKube-1 30 Oct 09:50:17 09:54:06 29° 98° (E) 09:57:53 145.840 MHz, 145.915 MHz
ISS 30 Oct 09:58:05 10:01:24 89° 127° (SE) 10:04:43 145.800 FM
ZACube-1 30 Oct 09:58:31 10:00:20 13° 93° (E) 10:02:09 437.345 MHz
SO-50 30 Oct 10:21:27 10:25:02 24° 110° (ESE) 10:28:42 436.795 FM
Oscar 11 30 Oct 10:25:53 10:30:12 81° 102° (ESE) 10:34:31 145.825 FM, Beacon 2401.500 USB
HO-68 30 Oct 10:32:43 10:39:32 48° 291° (WNW) 10:46:19 435.675 MHz FM
FUNcube-1 30 Oct 10:39:49 10:43:48 42° 99° (E) 10:47:43 145.950 - 145.970 MHz USB
PCSat 30 Oct 10:46:42 10:49:37 15° 51° (NE) 10:52:32 145.825 MHz
KITSAT 1 30 Oct 11:09:22 11:17:26 80° 297° (WNW) 11:25:34 435.175 FM
UKube-1 30 Oct 11:26:57 11:30:02 19° 291° (WNW) 11:33:07 145.840 MHz, 145.915 MHz
ZACube-1 30 Oct 11:33:00 11:36:52 37° 286° (WNW) 11:40:42 437.345 MHz
ISS 30 Oct 11:37:37 11:38:30 11° 331° (NNW) 11:39:23 145.800 FM
SO-50 30 Oct 12:01:35 12:05:26 27° 306° (NW) 12:09:22 436.795 FM
Sapphire 30 Oct 12:06:18 12:11:43 67° 64° (ENE) 12:17:06 437.095 MHz 1200 baud AX-25 AFSK
FUNcube-1 30 Oct 12:18:11 12:19:44 12° 293° (WNW) 12:21:17 145.950 - 145.970 MHz USB
PCSat 30 Oct 12:28:08 12:33:32 70° 247° (WSW) 12:38:53 145.825 MHz
Oscar 16 30 Oct 12:40:23 12:44:24 24° 69° (ENE) 12:48:25 437.025 USB, Beacon 2401.1428
UOSAT-12 30 Oct 12:50:16 12:54:51 83° 117° (ESE) 12:59:34 437.025 FM, 437.400 FM
JAS-1B 30 Oct 13:05:08 13:10:28 38° 71° (ENE) 13:15:39 435.800 - 435.900 CW/SSB
KITSAT 1 30 Oct 13:09:18 13:14:05 17° 317° (NW) 13:18:54 435.175 FM
Uribyol 2 30 Oct 13:11:47 13:15:27 20° 67° (ENE) 13:19:08 436.500 FM
ITAMSAT 1 30 Oct 13:19:11 13:23:06 22° 68° (ENE) 13:27:01 435.822 SSB
AO-Echo 30 Oct 13:23:30 13:27:46 30° 70° (ENE) 13:32:10 ?
Oscar 19 30 Oct 13:31:23 13:36:32 78° 76° (ENE) 13:41:40 437.125 CW, 437.150 USB
Sapphire 30 Oct 13:52:25 13:54:28 12° 257° (WSW) 13:56:32 437.095 MHz 1200 baud AX-25 AFSK
AO-27 30 Oct 14:05:03 14:10:12 66° 75° (ENE) 14:15:23 436.795 MHz FM
AO-7 30 Oct 14:05:43 14:06:25 10° 51° (NE) 14:07:08 29.400 - 29.500 MHz
Gurwin Techsat 1B 30 Oct 14:15:05 14:20:00 40° 72° (ENE) 14:24:56 435.225 FM
Oscar 16 30 Oct 14:18:54 14:23:31 33° 262° (W) 14:28:08 437.025 USB, Beacon 2401.1428
TMSAT-1 30 Oct 14:22:20 14:27:04 34° 71° (ENE) 14:31:49 436.925 FM
UOSAT-12 30 Oct 14:34:30 14:35:36 11° 314° (NW) 14:36:42 437.025 FM, 437.400 FM
Uribyol 2 30 Oct 14:49:40 14:54:34 41° 261° (W) 14:59:30 436.500 FM
JAS-1B 30 Oct 14:56:59 15:01:16 21° 264° (W) 15:05:26 435.800 - 435.900 CW/SSB
ITAMSAT 1 30 Oct 14:57:31 15:02:17 37° 261° (W) 15:07:07 435.822 SSB
AO-Echo 30 Oct 15:02:32 15:06:29 24° 265° (W) 15:10:32 ?
Uosat F 30 Oct 15:16:00 15:18:37 14° 65° (ENE) 15:21:14 435.120 FM
Saudisat 1A 30 Oct 15:16:29 15:20:54 72° 61° (ENE) 15:25:17 436.775 MHz
AO-27 30 Oct 15:48:30 15:50:04 11° 268° (W) 15:51:39 436.795 MHz FM
AO-7 30 Oct 15:49:27 15:57:32 62° 69° (ENE) 16:05:39 29.400 - 29.500 MHz
Gurwin Techsat 1B 30 Oct 15:56:16 16:00:03 20° 265° (W) 16:03:51 435.225 FM
TMSAT-1 30 Oct 16:02:49 16:06:58 23° 264° (W) 16:11:09 436.925 FM
ISS 30 Oct 16:31:17 16:33:15 15° 32° (NNE) 16:35:14 145.800 FM
JAS-2 30 Oct 16:33:08 16:38:10 27° 65° (ENE) 16:43:43 435.800 - 435.900 CW/SSB, 435.910 FM
Uosat F 30 Oct 16:51:59 16:56:53 54° 259° (W) 17:01:49 435.120 FM
Hamsat 30 Oct 17:03:05 17:06:11 20° 71° (ENE) 17:09:16 145.90 MHz
OPAL 30 Oct 17:22:52 17:27:02 27° 99° (E) 17:31:12 ?
AO-7 30 Oct 17:44:25 17:50:40 24° 264° (W) 17:56:58 29.400 - 29.500 MHz
ISS 30 Oct 18:06:55 18:10:10 52° 227° (SW) 18:13:25 145.800 FM
JAS-2 30 Oct 18:17:11 18:22:50 42° 263° (W) 18:29:13 435.800 - 435.900 CW/SSB, 435.910 FM
Oscar 10/S400 30 Oct 18:27:05 18:52:04 73° 190° (S) 04:43:07 145.825 - 145.975 CW/USB, Beacon 145.810 USB
SO-67 30 Oct 18:29:13 18:31:47 20° 72° (ENE) 18:34:21 435.3500 MHz FM
AO-40 30 Oct 18:34:30 00:22:32 49° 146° (SE) 01:56:36 Beacon 2401.320
Hamsat 30 Oct 18:38:30 18:41:56 25° 264° (W) 18:45:23 145.90 MHz
OPAL 30 Oct 19:01:42 19:05:48 27° 292° (WNW) 19:09:53 ?
KITSAT 1 30 Oct 19:08:39 19:14:57 24° 49° (NE) 19:21:12 435.175 FM
HO-68 30 Oct 19:13:09 19:15:55 13° 57° (ENE) 19:18:42 435.675 MHz FM
STRAND 1 30 Oct 19:17:17 19:22:19 52° 100° (E) 19:27:17 ?
RS-15 30 Oct 19:22:04 19:29:46 22° 102° (ESE) 19:37:20 29.354 - 29.394 USB, Beacon 29.352 USB
SO-67 30 Oct 20:02:31 20:04:38 16° 265° (W) 20:06:46 435.3500 MHz FM
SO-50 30 Oct 20:36:26 20:41:19 77° 61° (ENE) 20:46:12 436.795 FM
UKube-1 30 Oct 20:42:34 20:45:05 15° 67° (ENE) 20:47:37 145.840 MHz, 145.915 MHz
HO-68 30 Oct 20:55:21 21:02:30 82° 73° (ENE) 21:09:42 435.675 MHz FM
STRAND 1 30 Oct 20:58:06 21:01:00 15° 295° (WNW) 21:03:53 ?
MaSat-1 30 Oct 21:01:28 21:03:39 14° 106° (ESE) 21:05:45 437.345 MHz
KITSAT 1 30 Oct 21:02:57 21:10:57 70° 247° (WSW) 21:18:56 435.175 FM
Oscar 11 30 Oct 21:16:35 21:20:29 34° 73° (ENE) 21:24:24 145.825 FM, Beacon 2401.500 USB
UOSAT-12 30 Oct 21:24:57 21:28:36 22° 52° (NE) 21:32:11 437.025 FM, 437.400 FM
RS-15 30 Oct 21:29:48 21:40:52 77° 299° (WNW) 21:51:49 29.354 - 29.394 USB, Beacon 29.352 USB
FUNcube-1 30 Oct 21:32:06 21:35:34 22° 71° (ENE) 21:39:00 145.950 - 145.970 MHz USB
UKube-1 30 Oct 22:16:53 22:20:55 37° 261° (W) 22:24:58 145.840 MHz, 145.915 MHz
ZACube-1 30 Oct 22:24:02 22:28:36 89° 257° (WSW) 22:33:06 437.345 MHz
MaSat-1 30 Oct 22:35:15 22:38:50 31° 295° (WNW) 22:42:09 437.345 MHz
HO-68 30 Oct 22:47:27 22:50:48 14° 268° (W) 22:54:11 435.675 MHz FM
Oscar 11 30 Oct 22:54:10 22:56:43 15° 266° (W) 22:59:16 145.825 FM, Beacon 2401.500 USB
UOSAT-12 30 Oct 23:04:33 23:08:47 34° 248° (WSW) 23:12:55 437.025 FM, 437.400 FM
FUNcube-1 30 Oct 23:07:52 23:11:44 27° 263° (W) 23:15:35 145.950 - 145.970 MHz USB
RS-15 30 Oct 23:47:47 23:55:15 20° 323° (NW) 00:02:47 29.354 - 29.394 USB, Beacon 29.352 USB
JAS-1B 31 Oct 00:53:03 00:57:56 18° 95° (E) 01:03:14 435.800 - 435.900 CW/SSB
Oscar 16 31 Oct 00:58:38 01:00:00 11° 92° (E) 01:01:21 437.025 USB, Beacon 2401.1428
Sapphire 31 Oct 01:02:37 01:05:52 16° 104° (ESE) 01:09:07 437.095 MHz 1200 baud AX-25 AFSK
PCSat 31 Oct 01:22:47 01:27:23 29° 108° (ESE) 01:32:00 145.825 MHz
AO-Echo 31 Oct 01:36:23 01:39:22 15° 93° (E) 01:42:19 ?
ITAMSAT 1 31 Oct 01:39:26 01:39:53 10° 92° (E) 01:40:20 435.822 SSB
Oscar 19 31 Oct 01:47:51 01:52:38 39° 99° (E) 01:57:24 437.125 CW, 437.150 USB
AO-27 31 Oct 02:23:06 02:27:49 34° 98° (E) 02:32:30 436.795 MHz FM
Oscar 16 31 Oct 02:34:38 02:39:42 65° 285° (WNW) 02:44:45 437.025 USB, Beacon 2401.1428
Gurwin Techsat 1B 31 Oct 02:36:25 02:40:37 24° 96° (E) 02:44:47 435.225 FM
JAS-1B 31 Oct 02:41:13 02:48:36 78° 285° (WNW) 02:57:26 435.800 - 435.900 CW/SSB
TMSAT-1 31 Oct 02:43:25 02:47:13 20° 95° (E) 02:50:59 436.925 FM
Sapphire 31 Oct 02:43:32 02:48:47 52° 298° (WNW) 02:54:04 437.095 MHz 1200 baud AX-25 AFSK
PCSat 31 Oct 03:05:56 03:10:40 31° 302° (WNW) 03:15:26 145.825 MHz
Uribyol 2 31 Oct 03:06:43 03:11:55 80° 284° (WNW) 03:17:05 436.500 FM
AO-Echo 31 Oct 03:13:12 03:18:22 53° 286° (WNW) 03:23:26 ?
ITAMSAT 1 31 Oct 03:14:35 03:19:47 71° 285° (WNW) 03:24:56 435.822 SSB
Oscar 19 31 Oct 03:28:03 03:31:39 20° 293° (WNW) 03:35:15 437.125 CW, 437.150 USB
PANSAT 31 Oct 03:43:03 03:46:15 25° 164° (SSE) 03:49:27 not established
AO-7 31 Oct 03:57:03 04:03:46 27° 97° (E) 04:10:26 29.400 - 29.500 MHz
AO-27 31 Oct 04:03:02 04:07:05 23° 292° (WNW) 04:11:07 436.795 MHz FM
Gurwin Techsat 1B 31 Oct 04:15:49 04:20:33 34° 289° (WNW) 04:25:17 435.225 FM
TMSAT-1 31 Oct 04:22:17 04:27:12 40° 288° (WNW) 04:32:06 436.925 FM
RS-15 31 Oct 04:25:34 04:33:36 22° 38° (NE) 04:41:47 29.354 - 29.394 USB, Beacon 29.352 USB
OPAL 31 Oct 04:33:24 04:37:52 31° 69° (ENE) 04:42:16 ?
JAS-1B 31 Oct 04:35:40 04:38:24 12° 298° (WNW) 04:41:17 435.800 - 435.900 CW/SSB
Uosat F 31 Oct 05:04:09 05:09:11 68° 102° (ESE) 05:14:10 435.120 FM
Saudisat 1A 31 Oct 05:18:25 05:22:40 55° 115° (ESE) 05:26:58 436.775 MHz
PANSAT 31 Oct 05:22:24 05:26:04 43° 176° (S) 05:29:44 not established
JAS-2 31 Oct 05:30:46 05:38:05 41° 97° (E) 05:45:01 435.800 - 435.900 CW/SSB, 435.910 FM
AO-7 31 Oct 05:48:42 05:56:47 57° 292° (WNW) 06:04:52 29.400 - 29.500 MHz
OPAL 31 Oct 06:12:30 06:16:40 25° 261° (W) 06:20:48 ?
Hamsat 31 Oct 06:27:33 06:31:47 78° 102° (ESE) 06:36:02 145.90 MHz
STRAND 1 31 Oct 06:28:43 06:33:37 47° 73° (ENE) 06:38:33 ?
Uosat F 31 Oct 06:45:41 06:47:20 12° 296° (WNW) 06:48:58 435.120 FM
